This is the latest recevied weather packets stored in our database for station/object K0QJ. If no packets are shown the sender has not sent any weather packets the latest 10 day(s).
| Time | Temp. | Humidity | Pressure | Rain* | Wind** | Luminosity | Snow |
|---|---|---|---|---|---|---|---|
| 1777479825 | 13.33° C | 64% | 1019.7 hPa | 0 mm | - | 818 W/m² | - |
| 1777479522 | 13.33° C | 64% | 1019.8 hPa | 0 mm | - | 585 W/m² | - |
| 1777479219 | 12.78° C | 65% | 1019.8 hPa | 0 mm | - | 165 W/m² | - |
| 1777478916 | 13.89° C | 65% | 1019.8 hPa | 0 mm | - | 555 W/m² | - |
| 1777478612 | 13.33° C | 66% | 1019.8 hPa | 0 mm | - | 808 W/m² | - |
| 1777478310 | 13.33° C | 66% | 1019.9 hPa | 0 mm | - | 724 W/m² | - |
| 1777478006 | 12.22° C | 67% | 1019.8 hPa | 0 mm | - | 708 W/m² | - |
| 1777477701 | 12.22° C | 68% | 1019.9 hPa | 0 mm | - | 494 W/m² | - |
| 1777477398 | 11.67° C | 68% | 1019.7 hPa | 0 mm | - | 696 W/m² | - |
| 1777477095 | 12.22° C | 71% | 1019.8 hPa | 0 mm | - | 161 W/m² | - |
| 1777476792 | 12.22° C | 69% | 1019.8 hPa | 0 mm | - | 622 W/m² | - |
| 1777476489 | 12.22° C | 70% | 1020 hPa | 0 mm | - | 540 W/m² | - |
| 1777476185 | 11.67° C | 71% | 1019.8 hPa | 0 mm | - | 447 W/m² | - |
| 1777475881 | 11.67° C | 70% | 1019.9 hPa | 0 mm | - | 177 W/m² | - |
| 1777475577 | 11.67° C | 70% | 1019.7 hPa | 0 mm | - | 627 W/m² | - |
| 1777475274 | 11.67° C | 71% | 1019.8 hPa | 0 mm | - | 610 W/m² | - |
| 1777474969 | 11.67° C | 72% | 1019.8 hPa | 0 mm | - | 603 W/m² | - |
| 1777474665 | 11.67° C | 73% | 1020 hPa | 0 mm | - | 572 W/m² | - |
| 1777474362 | 11.11° C | 73% | 1019.9 hPa | 0 mm | - | 530 W/m² | - |
| 1777474058 | 11.11° C | 74% | 1019.9 hPa | 0 mm | - | 521 W/m² | - |
| 1777473756 | 10.56° C | 75% | 1020 hPa | 0 mm | - | 501 W/m² | - |
| 1777473453 | 10.56° C | 75% | 1019.8 hPa | 0 mm | - | 124 W/m² | - |
| 1777473148 | 10.56° C | 76% | 1020 hPa | 0 mm | - | 185 W/m² | - |
| 1777472846 | 10.56° C | 76% | 1019.9 hPa | 0 mm | - | 119 W/m² | - |
| 1777472541 | 10° C | 77% | 1019.9 hPa | 0 mm | - | 62 W/m² | - |
* Rain latest hour (hover to see other rain measurements)
** Current wind speed in m/s (hover to see current wind gust speed)